QPF
0.10 0.06 0.09 0.09 0.06 0.04 0.03 0.04 0.05 0.05 0.04 0.03 0.04 0.06 0.07 0.07 0.06 0.06 0.07 0.09 0.10 0.10 0.09 0.08 0.07 0.08 0.08 0.07 0.07 0.08 0.11 0.14 0.12 0.09 0.12 0.17 0.30 0.27 0.17 0.10 0.10 0.08 0.06
0.06 0.05 0.08 0.08 0.07 0.05 0.06 0.06 0.06 0.05 0.05 0.04 0.04 0.05 0.06 0.05 0.05 0.05 0.05 0.06 0.08 0.10 0.08 0.06 0.05 0.07 0.09 0.09 0.08 0.09 0.11 0.12 0.10 0.10 0.12 0.18 0.22 0.21 0.15 0.10 0.10 0.08 0.08
0.04 0.05 0.09 0.09 0.07 0.05 0.06 0.08 0.06 0.04 0.05 0.05 0.05 0.04 0.04 0.05 0.05 0.06 0.05 0.06 0.07 0.07 0.05 0.04 0.05 0.07 0.09 0.08 0.07 0.09 0.11 0.13 0.13 0.12 0.11 0.12 0.18 0.19 0.15 0.12 0.14 0.12 0.10
0.03 0.05 0.12 0.11 0.07 0.05 0.04 0.08 0.08 0.07 0.06 0.05 0.05 0.03 0.03 0.05 0.04 0.05 0.07 0.08 0.07 0.06 0.05 0.04 0.05 0.06 0.07 0.08 0.08 0.08 0.11 0.14 0.14 0.12 0.08 0.08 0.12 0.18 0.19 0.18 0.26 0.23 0.17
0.02 0.05 0.15 0.10 0.06 0.04 0.03 0.05 0.07 0.08 0.06 0.04 0.04 0.04 0.04 0.05 0.06 0.06 0.08 0.09 0.08 0.06 0.06 0.06 0.05 0.07 0.08 0.08 0.08 0.09 0.10 0.13 0.15 0.11 0.06 0.05 0.08 0.13 0.13 0.13 0.25 0.33 0.26
0.02 0.06 0.13 0.07 0.04 0.02 0.02 0.02 0.03 0.04 0.04 0.04 0.05 0.06 0.05 0.06 0.08 0.09 0.11 0.11 0.10 0.08 0.06 0.06 0.05 0.06 0.06 0.06 0.08 0.07 0.09 0.13 0.11 0.08 0.05 0.05 0.07 0.11 0.10 0.11 0.22 0.31 0.29
0.03 0.07 0.09 0.06 0.04 0.02 0.02 0.03 0.02 0.02 0.02 0.04 0.04 0.04 0.04 0.04 0.06 0.07 0.08 0.09 0.10 0.08 0.06 0.05 0.04 0.04 0.05 0.04 0.05 0.06 0.10 0.12 0.09 0.05 0.03 0.05 0.08 0.12 0.10 0.07 0.11 0.17 0.20
0.07 0.07 0.07 0.07 0.04 0.02 0.02 0.03 0.01 0.01 0.02 0.03 0.02 0.02 0.03 0.02 0.03 0.04 0.05 0.08 0.07 0.05 0.05 0.06 0.04 0.05 0.05 0.04 0.04 0.06 0.09 0.10 0.08 0.06 0.04 0.04 0.07 0.11 0.10 0.07 0.07 0.10 0.10
0.07 0.05 0.06 0.05 0.04 0.03 0.04 0.04 0.01 0.01 0.02 0.03 0.03 0.03 0.02 0.03 0.03 0.04 0.05 0.08 0.07 0.05 0.05 0.06 0.05 0.04 0.05 0.04 0.03 0.06 0.08 0.10 0.10 0.09 0.05 0.04 0.05 0.08 0.14 0.14 0.08 0.06 0.06
0.05 0.04 0.03 0.03 0.04 0.03 0.03 0.04 0.04 0.02 0.03 0.03 0.05 0.04 0.03 0.03 0.04 0.05 0.05 0.08 0.09 0.08 0.07 0.07 0.06 0.04 0.04 0.05 0.05 0.07 0.09 0.10 0.10 0.09 0.07 0.07 0.08 0.09 0.14 0.21 0.12 0.07 0.06
0.03 0.03 0.03 0.02 0.03 0.04 0.02 0.03 0.04 0.04 0.04 0.04 0.05 0.05 0.04 0.03 0.03 0.03 0.04 0.08 0.12 0.13 0.11 0.10 0.07 0.06 0.06 0.05 0.06 0.07 0.09 0.09 0.09 0.10 0.12 0.11 0.10 0.11 0.13 0.16 0.18 0.12 0.08
0.03 0.02 0.02 0.02 0.02 0.04 0.04 0.03 0.02 0.03 0.06 0.05 0.03 0.02 0.03 0.03 0.03 0.02 0.04 0.09 0.14 0.15 0.14 0.11 0.07 0.05 0.06 0.06 0.08 0.10 0.11 0.10 0.11 0.12 0.14 0.14 0.11 0.10 0.10 0.10 0.19 0.17 0.12
0.03 0.02 0.01 0.02 0.03 0.03 0.05 0.03 0.02 0.03 0.04 0.04 0.04 0.07 0.05 0.04 0.04 0.04 0.05 0.10 0.13 0.13 0.07 0.09 0.08 0.06 0.06 0.08 0.10 0.10 0.10 0.11 0.11 0.13 0.13 0.09 0.08 0.09 0.09 0.07 0.10 0.13 0.14
0.02 0.03 0.02 0.03 0.04 0.02 0.02 0.03 0.02 0.04 0.05 0.05 0.07 0.10 0.05 0.03 0.03 0.04 0.05 0.08 0.09 0.07 0.04 0.05 0.07 0.06 0.05 0.06 0.07 0.07 0.08 0.15 0.15 0.14 0.13 0.11 0.08 0.10 0.11 0.09 0.10 0.14 0.20
0.01 0.01 0.01 0.03 0.03 0.02 0.02 0.02 0.02 0.02 0.03 0.04 0.06 0.06 0.05 0.03 0.03 0.03 0.04 0.06 0.08 0.06 0.05 0.04 0.05 0.06 0.05 0.04 0.04 0.04 0.06 0.09 0.10 0.12 0.12 0.12 0.09 0.10 0.10 0.10 0.10 0.11 0.17
0.01 0.01 0.02 0.02 0.02 0.02 0.02 0.02 0.02 0.02 0.02 0.04 0.05 0.06 0.05 0.04 0.03 0.03 0.04 0.05 0.07 0.05 0.05 0.04 0.04 0.06 0.05 0.03 0.04 0.04 0.06 0.08 0.09 0.11 0.11 0.09 0.10 0.11 0.11 0.11 0.11 0.10 0.11
0.01 0.01 0.01 0.01 0.01 0.01 0.01 0.02 0.02 0.04 0.04 0.03 0.05 0.06 0.07 0.07 0.07 0.04 0.03 0.04 0.04 0.04 0.04 0.04 0.05 0.06 0.04 0.06 0.05 0.04 0.06 0.08 0.11 0.12 0.12 0.11 0.10 0.11 0.09 0.09 0.09 0.08 0.09
0.01 0.01 0.01 0.01 0.00 0.01 0.01 0.01 0.03 0.05 0.06 0.04 0.05 0.06 0.05 0.05 0.06 0.06 0.03 0.03 0.03 0.03 0.04 0.05 0.05 0.06 0.05 0.05 0.05 0.05 0.05 0.05 0.11 0.13 0.12 0.13 0.14 0.11 0.08 0.08 0.07 0.07 0.07
0.00 0.00 0.00 0.01 0.01 0.01 0.01 0.02 0.04 0.05 0.06 0.05 0.04 0.04 0.05 0.03 0.03 0.04 0.03 0.03 0.03 0.03 0.04 0.04 0.05 0.04 0.03 0.04 0.05 0.08 0.04 0.03 0.05 0.07 0.09 0.13 0.15 0.12 0.08 0.08 0.07 0.07 0.07
0.00 0.00 0.00 0.00 0.01 0.00 0.01 0.02 0.04 0.05 0.05 0.04 0.06 0.12 0.05 0.05 0.04 0.05 0.04 0.02 0.03 0.03 0.04 0.05 0.06 0.04 0.03 0.03 0.04 0.04 0.04 0.05 0.06 0.06 0.06 0.07 0.10 0.13 0.10 0.08 0.09 0.08 0.08
0.01 0.01 0.00 0.01 0.01 0.01 0.02 0.02 0.02 0.03 0.04 0.04 0.05 0.07 0.05 0.05 0.05 0.04 0.04 0.03 0.03 0.03 0.03 0.05 0.06 0.05 0.04 0.03 0.04 0.04 0.05 0.06 0.08 0.05 0.04 0.04 0.04 0.06 0.10 0.09 0.09 0.10 0.07
0.02 0.02 0.01 0.00 0.01 0.01 0.01 0.02 0.02 0.01 0.02 0.04 0.05 0.05 0.05 0.06 0.05 0.04 0.03 0.03 0.03 0.03 0.02 0.03 0.04 0.03 0.03 0.03 0.03 0.03 0.03 0.04 0.05 0.04 0.05 0.07 0.07 0.07 0.06 0.08 0.09 0.10 0.10
0.02 0.03 0.02 0.01 0.00 0.00 0.00 0.01 0.01 0.01 0.03 0.05 0.06 0.05 0.04 0.06 0.06 0.04 0.03 0.02 0.02 0.02 0.02 0.02 0.02 0.03 0.02 0.03 0.02 0.03 0.03 0.03 0.04 0.05 0.07 0.08 0.09 0.09 0.06 0.05 0.07 0.09 0.10
0.02 0.05 0.05 0.02 0.01 0.01 0.01 0.01 0.01 0.01 0.02 0.02 0.03 0.03 0.03 0.04 0.06 0.05 0.04 0.03 0.02 0.02 0.02 0.01 0.02 0.02 0.02 0.03 0.03 0.03 0.04 0.03 0.04 0.04 0.05 0.06 0.05 0.05 0.04 0.05 0.07 0.11 0.12
0.02 0.04 0.07 0.05 0.03 0.03 0.02 0.01 0.02 0.01 0.02 0.02 0.02 0.02 0.03 0.04 0.06 0.05 0.03 0.03 0.02 0.02 0.02 0.02 0.02 0.02 0.02 0.03 0.03 0.04 0.04 0.03 0.03 0.03 0.05 0.05 0.03 0.02 0.01 0.02 0.04 0.06 0.08
0.02 0.03 0.05 0.05 0.05 0.04 0.03 0.03 0.03 0.02 0.02 0.02 0.02 0.02 0.03 0.05 0.06 0.06 0.05 0.04 0.03 0.02 0.03 0.03 0.03 0.04 0.03 0.03 0.04 0.04 0.05 0.03 0.03 0.04 0.03 0.04 0.02 0.01 0.01 0.01 0.02 0.03 0.04
MSLP
1009.38 1008.52 1007.76 1007.15 1006.69 1006.33 1006.02 1005.70 1005.32 1004.83 1004.20 1003.36 1002.29 1000.95 999.33 997.47 995.46 993.44 991.64 990.26 989.51 989.50 990.27 991.73 993.72 996.00 998.32 1000.46 1002.27 1003.72 1004.84 1005.70 1006.41 1007.07 1007.73 1008.40 1009.04 1009.63 1010.11 1010.48 1010.75 1010.96 1011.17
1009.11 1008.35 1007.70 1007.19 1006.79 1006.46 1006.15 1005.81 1005.40 1004.90 1004.29 1003.56 1002.67 1001.62 1000.37 998.95 997.41 995.86 994.45 993.37 992.76 992.74 993.35 994.52 996.12 997.97 999.85 1001.60 1003.10 1004.33 1005.30 1006.08 1006.76 1007.41 1008.07 1008.71 1009.33 1009.86 1010.29 1010.61 1010.84 1011.03 1011.23
1008.71 1008.10 1007.59 1007.19 1006.89 1006.62 1006.34 1006.00 1005.59 1005.09 1004.52 1003.88 1003.17 1002.37 1001.46 1000.44 999.34 998.23 997.20 996.41 995.95 995.93 996.38 997.26 998.47 999.87 1001.32 1002.67 1003.86 1004.86 1005.69 1006.40 1007.07 1007.72 1008.38 1009.01 1009.60 1010.10 1010.48 1010.76 1010.96 1011.13 1011.32
1008.22 1007.77 1007.42 1007.17 1006.98 1006.81 1006.59 1006.29 1005.89 1005.41 1004.88 1004.31 1003.73 1003.12 1002.48 1001.78 1001.04 1000.29 999.59 999.04 998.73 998.71 999.03 999.66 1000.53 1001.54 1002.60 1003.61 1004.52 1005.32 1006.04 1006.70 1007.36 1008.02 1008.68 1009.31 1009.87 1010.33 1010.68 1010.92 1011.10 1011.27 1011.48
1007.73 1007.43 1007.23 1007.13 1007.07 1007.00 1006.85 1006.61 1006.25 1005.81 1005.32 1004.81 1004.32 1003.84 1003.37 1002.90 1002.41 1001.93 1001.48 1001.12 1000.92 1000.93 1001.15 1001.59 1002.20 1002.92 1003.67 1004.41 1005.11 1005.76 1006.39 1007.02 1007.67 1008.34 1009.00 1009.62 1010.15 1010.57 1010.88 1011.10 1011.27 1011.45 1011.68
1007.33 1007.14 1007.07 1007.08 1007.14 1007.16 1007.10 1006.92 1006.63 1006.23 1005.79 1005.33 1004.90 1004.51 1004.15 1003.81 1003.48 1003.16 1002.87 1002.66 1002.54 1002.57 1002.75 1003.07 1003.51 1004.03 1004.57 1005.13 1005.68 1006.23 1006.80 1007.40 1008.04 1008.70 1009.35 1009.94 1010.43 1010.82 1011.09 1011.29 1011.46 1011.66 1011.92
1007.07 1006.96 1006.97 1007.06 1007.19 1007.28 1007.29 1007.18 1006.95 1006.62 1006.24 1005.85 1005.48 1005.14 1004.84 1004.58 1004.33 1004.10 1003.91 1003.77 1003.72 1003.77 1003.93 1004.20 1004.55 1004.95 1005.38 1005.82 1006.28 1006.76 1007.29 1007.86 1008.48 1009.11 1009.72 1010.27 1010.71 1011.05 1011.29 1011.48 1011.65 1011.87 1012.16
1007.01 1006.93 1006.97 1007.09 1007.24 1007.36 1007.40 1007.34 1007.17 1006.93 1006.63 1006.32 1006.03 1005.76 1005.51 1005.29 1005.08 1004.89 1004.74 1004.64 1004.62 1004.70 1004.87 1005.12 1005.43 1005.78 1006.15 1006.54 1006.94 1007.38 1007.87 1008.40 1008.97 1009.55 1010.11 1010.59 1010.98 1011.27 1011.48 1011.65 1011.83 1012.06 1012.38
1007.14 1007.06 1007.09 1007.19 1007.30 1007.40 1007.44 1007.40 1007.29 1007.13 1006.94 1006.74 1006.55 1006.36 1006.18 1006.00 1005.82 1005.65 1005.51 1005.42 1005.42 1005.50 1005.68 1005.93 1006.23 1006.56 1006.91 1007.27 1007.64 1008.04 1008.48 1008.96 1009.47 1009.99 1010.47 1010.89 1011.22 1011.47 1011.65 1011.81 1011.99 1012.24 1012.56
1007.41 1007.33 1007.32 1007.36 1007.41 1007.44 1007.43 1007.39 1007.32 1007.24 1007.15 1007.08 1007.01 1006.94 1006.84 1006.72 1006.58 1006.42 1006.28 1006.20 1006.18 1006.26 1006.43 1006.68 1006.97 1007.30 1007.63 1007.97 1008.31 1008.67 1009.06 1009.48 1009.93 1010.37 1010.79 1011.14 1011.43 1011.64 1011.81 1011.96 1012.15 1012.40 1012.72
1007.78 1007.68 1007.63 1007.60 1007.56 1007.50 1007.43 1007.35 1007.29 1007.27 1007.29 1007.34 1007.40 1007.45 1007.46 1007.41 1007.31 1007.18 1007.04 1006.95 1006.92 1006.98 1007.13 1007.36 1007.64 1007.95 1008.26 1008.57 1008.89 1009.21 1009.55 1009.92 1010.30 1010.69 1011.04 1011.36 1011.61 1011.81 1011.97 1012.13 1012.32 1012.56 1012.86
1008.16 1008.08 1008.00 1007.90 1007.77 1007.61 1007.46 1007.33 1007.26 1007.27 1007.37 1007.52 1007.70 1007.86 1007.97 1008.00 1007.96 1007.85 1007.73 1007.62 1007.57 1007.60 1007.73 1007.93 1008.18 1008.46 1008.76 1009.04 1009.33 1009.61 1009.92 1010.24 1010.58 1010.91 1011.24 1011.53 1011.77 1011.97 1012.15 1012.32 1012.50 1012.73 1013.01
1008.50 1008.45 1008.37 1008.23 1008.02 1007.79 1007.55 1007.37 1007.27 1007.29 1007.42 1007.64 1007.90 1008.15 1008.34 1008.43 1008.44 1008.37 1008.25 1008.14 1008.08 1008.09 1008.18 1008.35 1008.57 1008.83 1009.09 1009.36 1009.62 1009.89 1010.16 1010.45 1010.76 1011.08 1011.38 1011.67 1011.92 1012.14 1012.33 1012.52 1012.71 1012.92 1013.16
1008.77 1008.77 1008.70 1008.54 1008.30 1008.02 1007.72 1007.49 1007.36 1007.37 1007.50 1007.74 1008.03 1008.31 1008.54 1008.68 1008.72 1008.67 1008.57 1008.47 1008.41 1008.41 1008.48 1008.62 1008.82 1009.06 1009.31 1009.56 1009.81 1010.06 1010.33 1010.61 1010.90 1011.21 1011.51 1011.80 1012.06 1012.30 1012.51 1012.71 1012.91 1013.11 1013.32
1008.93 1008.99 1008.96 1008.82 1008.58 1008.27 1007.96 1007.71 1007.55 1007.53 1007.64 1007.85 1008.12 1008.39 1008.61 1008.75 1008.80 1008.78 1008.71 1008.63 1008.58 1008.59 1008.66 1008.80 1008.99 1009.22 1009.46 1009.71 1009.97 1010.22 1010.49 1010.76 1011.05 1011.35 1011.64 1011.92 1012.19 1012.44 1012.66 1012.87 1013.07 1013.26 1013.44
1009.01 1009.10 1009.11 1009.01 1008.80 1008.53 1008.25 1008.01 1007.85 1007.80 1007.87 1008.02 1008.22 1008.43 1008.60 1008.71 1008.75 1008.74 1008.70 1008.65 1008.64 1008.68 1008.79 1008.94 1009.15 1009.39 1009.64 1009.91 1010.17 1010.44 1010.72 1010.99 1011.26 1011.54 1011.81 1012.07 1012.31 1012.54 1012.76 1012.96 1013.15 1013.33 1013.50
1009.01 1009.13 1009.17 1009.11 1008.96 1008.76 1008.55 1008.36 1008.23 1008.18 1008.20 1008.28 1008.40 1008.51 1008.59 1008.64 1008.66 1008.65 1008.64 1008.64 1008.69 1008.78 1008.93 1009.13 1009.37 1009.63 1009.91 1010.20 1010.49 1010.77 1011.05 1011.32 1011.57 1011.80 1012.03 1012.23 1012.42 1012.60 1012.79 1012.96 1013.14 1013.31 1013.48
1008.98 1009.07 1009.12 1009.11 1009.05 1008.95 1008.84 1008.74 1008.68 1008.64 1008.64 1008.65 1008.66 1008.66 1008.65 1008.63 1008.60 1008.59 1008.61 1008.67 1008.78 1008.94 1009.15 1009.40 1009.68 1009.98 1010.29 1010.60 1010.91 1011.21 1011.49 1011.75 1011.96 1012.15 1012.30 1012.42 1012.53 1012.64 1012.76 1012.90 1013.05 1013.21 1013.37
1008.90 1008.96 1009.00 1009.03 1009.05 1009.07 1009.09 1009.12 1009.15 1009.16 1009.15 1009.10 1009.02 1008.92 1008.81 1008.71 1008.64 1008.62 1008.67 1008.78 1008.96 1009.19 1009.45 1009.75 1010.06 1010.39 1010.73 1011.07 1011.40 1011.72 1012.00 1012.24 1012.42 1012.54 1012.61 1012.64 1012.65 1012.67 1012.71 1012.79 1012.90 1013.05 1013.22
1008.80 1008.80 1008.83 1008.89 1008.98 1009.12 1009.29 1009.45 1009.59 1009.67 1009.68 1009.60 1009.46 1009.26 1009.07 1008.90 1008.79 1008.76 1008.83 1008.99 1009.21 1009.49 1009.80 1010.13 1010.47 1010.81 1011.16 1011.52 1011.87 1012.20 1012.49 1012.72 1012.87 1012.94 1012.94 1012.88 1012.80 1012.72 1012.68 1012.69 1012.77 1012.90 1013.08
1008.67 1008.61 1008.62 1008.70 1008.86 1009.11 1009.41 1009.71 1009.96 1010.13 1010.17 1010.09 1009.90 1009.65 1009.39 1009.17 1009.03 1009.00 1009.08 1009.26 1009.52 1009.82 1010.14 1010.48 1010.81 1011.15 1011.50 1011.86 1012.23 1012.57 1012.88 1013.12 1013.26 1013.31 1013.26 1013.13 1012.97 1012.82 1012.71 1012.66 1012.70 1012.81 1012.98
1008.49 1008.39 1008.38 1008.47 1008.69 1009.03 1009.44 1009.85 1010.21 1010.46 1010.55 1010.49 1010.29 1010.01 1009.72 1009.47 1009.32 1009.28 1009.37 1009.56 1009.83 1010.12 1010.43 1010.73 1011.04 1011.35 1011.67 1012.03 1012.39 1012.76 1013.09 1013.36 1013.52 1013.57 1013.51 1013.37 1013.17 1012.97 1012.81 1012.72 1012.72 1012.81 1012.97
1008.25 1008.14 1008.11 1008.22 1008.47 1008.86 1009.35 1009.85 1010.30 1010.62 1010.77 1010.74 1010.56 1010.29 1010.00 1009.75 1009.60 1009.57 1009.67 1009.86 1010.10 1010.37 1010.63 1010.88 1011.12 1011.37 1011.65 1011.97 1012.34 1012.72 1013.08 1013.39 1013.60 1013.70 1013.67 1013.54 1013.35 1013.15 1012.97 1012.86 1012.84 1012.91 1013.05
1007.96 1007.86 1007.83 1007.93 1008.19 1008.61 1009.13 1009.69 1010.19 1010.57 1010.77 1010.79 1010.66 1010.43 1010.17 1009.96 1009.84 1009.83 1009.93 1010.11 1010.32 1010.54 1010.73 1010.90 1011.06 1011.23 1011.45 1011.73 1012.07 1012.46 1012.86 1013.21 1013.49 1013.65 1013.69 1013.62 1013.47 1013.30 1013.14 1013.04 1013.01 1013.07 1013.19
1007.65 1007.56 1007.52 1007.61 1007.86 1008.27 1008.79 1009.36 1009.89 1010.31 1010.56 1010.63 1010.56 1010.40 1010.21 1010.05 1009.98 1010.01 1010.13 1010.30 1010.49 1010.65 1010.78 1010.86 1010.93 1011.01 1011.15 1011.37 1011.68 1012.06 1012.47 1012.87 1013.20 1013.43 1013.55 1013.56 1013.48 1013.37 1013.25 1013.18 1013.16 1013.22 1013.32
1007.33 1007.25 1007.20 1007.26 1007.48 1007.85 1008.34 1008.89 1009.42 1009.85 1010.14 1010.28 1010.28 1010.19 1010.09 1010.02 1010.01 1010.09 1010.24 1010.42 1010.59 1010.72 1010.78 1010.79 1010.78 1010.78 1010.84 1010.99 1011.25 1011.59 1012.00 1012.41 1012.78 1013.07 1013.26 1013.34 1013.34 1013.30 1013.24 1013.21 1013.23 1013.29 1013.38
Thickness
5793 5796 5797 5797 5796 5797 5796 5795 5794 5793 5792 5791 5790 5790 5789 5788 5788 5787 5786 5785 5784 5783 5782 5780 5779 5777 5775 5774 5772 5770 5768 5767 5766 5764 5763 5763 5762 5762 5759 5758 5756 5755 5753
5798 5798 5797 5797 5797 5796 5796 5795 5794 5792 5791 5790 5790 5789 5788 5788 5787 5787 5786 5785 5784 5783 5781 5779 5778 5777 5775 5773 5771 5769 5767 5766 5765 5764 5763 5761 5760 5760 5758 5757 5756 5754 5753
5800 5799 5798 5797 5796 5795 5794 5794 5793 5792 5791 5790 5789 5788 5788 5787 5787 5786 5786 5785 5784 5782 5781 5779 5778 5776 5774 5773 5771 5768 5766 5765 5764 5763 5762 5760 5759 5759 5758 5757 5755 5754 5752
5800 5799 5798 5797 5796 5795 5794 5793 5792 5791 5790 5789 5788 5788 5787 5786 5786 5786 5785 5785 5783 5782 5781 5779 5777 5775 5774 5772 5770 5767 5766 5764 5763 5761 5760 5759 5759 5758 5757 5756 5755 5753 5751
5800 5799 5798 5797 5796 5794 5793 5792 5791 5790 5789 5789 5788 5787 5786 5786 5785 5785 5784 5784 5783 5782 5780 5779 5777 5775 5774 5772 5769 5767 5765 5764 5762 5761 5759 5758 5757 5756 5756 5755 5753 5752 5750
5800 5799 5797 5797 5796 5794 5793 5792 5791 5789 5789 5788 5786 5786 5785 5785 5784 5784 5783 5783 5782 5781 5780 5779 5777 5775 5774 5772 5770 5767 5764 5762 5761 5760 5758 5757 5756 5756 5755 5754 5752 5751 5749
5799 5798 5797 5796 5795 5794 5793 5791 5790 5789 5787 5786 5785 5785 5784 5783 5783 5783 5782 5782 5781 5780 5779 5779 5777 5776 5774 5772 5770 5767 5765 5762 5760 5759 5757 5756 5755 5754 5754 5753 5752 5751 5749
5800 5797 5796 5794 5793 5793 5792 5791 5789 5788 5787 5786 5785 5784 5783 5782 5782 5782 5782 5781 5781 5780 5779 5778 5777 5776 5774 5772 5770 5767 5765 5762 5760 5758 5757 5755 5754 5754 5753 5752 5751 5750 5748
5799 5797 5795 5793 5792 5792 5791 5790 5788 5787 5786 5785 5785 5784 5782 5781 5781 5781 5781 5781 5780 5780 5778 5777 5776 5775 5773 5772 5770 5767 5765 5762 5760 5758 5756 5755 5754 5753 5752 5750 5749 5748 5746
5796 5795 5794 5793 5792 5791 5790 5789 5788 5787 5786 5784 5783 5783 5781 5780 5780 5780 5780 5780 5779 5778 5777 5776 5775 5773 5772 5771 5769 5767 5764 5762 5759 5758 5756 5755 5754 5752 5751 5750 5749 5747 5746
5793 5793 5793 5792 5791 5790 5790 5789 5787 5787 5785 5784 5783 5782 5780 5780 5779 5779 5779 5778 5778 5777 5776 5775 5774 5773 5771 5770 5768 5766 5764 5761 5759 5758 5756 5755 5753 5751 5750 5749 5748 5747 5746
5789 5791 5792 5791 5791 5790 5790 5788 5787 5786 5785 5783 5782 5781 5779 5779 5778 5778 5778 5777 5776 5775 5775 5774 5773 5771 5770 5768 5767 5765 5763 5761 5759 5757 5756 5755 5753 5752 5751 5749 5748 5746 5745
5790 5791 5791 5792 5792 5791 5790 5788 5787 5785 5784 5783 5781 5780 5779 5777 5777 5777 5776 5776 5774 5774 5773 5772 5771 5770 5769 5768 5766 5764 5763 5760 5758 5757 5756 5754 5753 5752 5751 5749 5748 5746 5745
5791 5791 5791 5792 5791 5791 5790 5788 5787 5785 5783 5781 5780 5779 5777 5776 5775 5775 5774 5774 5773 5772 5771 5771 5770 5769 5768 5767 5765 5764 5762 5760 5759 5757 5756 5754 5753 5752 5751 5750 5748 5747 5745
5791 5791 5792 5792 5791 5790 5790 5788 5787 5785 5783 5781 5780 5778 5777 5775 5774 5774 5773 5773 5773 5772 5770 5769 5768 5768 5767 5765 5765 5763 5762 5760 5759 5757 5756 5754 5753 5752 5751 5750 5748 5746 5745
5791 5791 5792 5792 5792 5791 5790 5788 5786 5785 5783 5781 5779 5778 5776 5775 5774 5774 5773 5773 5772 5771 5770 5769 5768 5766 5765 5764 5763 5762 5761 5760 5758 5756 5755 5754 5753 5751 5750 5749 5748 5746 5745
5793 5793 5792 5792 5792 5791 5789 5788 5786 5784 5783 5781 5780 5778 5777 5776 5774 5774 5773 5772 5772 5771 5770 5768 5767 5765 5764 5763 5762 5762 5760 5759 5758 5756 5754 5753 5752 5751 5749 5748 5747 5746 5745
5795 5793 5793 5794 5791 5789 5788 5787 5786 5784 5783 5782 5780 5778 5777 5776 5775 5773 5772 5771 5771 5771 5770 5768 5765 5763 5762 5761 5760 5760 5760 5758 5757 5756 5754 5753 5751 5750 5748 5747 5746 5745 5744
5797 5795 5793 5793 5791 5789 5788 5787 5785 5783 5782 5781 5780 5778 5777 5776 5775 5773 5772 5771 5771 5769 5768 5767 5764 5762 5759 5758 5758 5758 5758 5758 5757 5755 5754 5752 5751 5749 5748 5747 5746 5745 5744
5799 5797 5795 5793 5792 5790 5788 5786 5784 5782 5781 5780 5779 5778 5777 5776 5774 5773 5771 5770 5770 5768 5766 5765 5762 5761 5759 5758 5758 5756 5757 5757 5756 5754 5753 5751 5750 5748 5747 5746 5745 5744 5743
5799 5797 5795 5793 5792 5790 5786 5783 5780 5779 5779 5779 5779 5778 5777 5776 5774 5772 5771 5769 5768 5766 5764 5763 5761 5759 5757 5757 5753 5750 5751 5754 5753 5753 5752 5751 5749 5748 5746 5745 5745 5744 5743
5799 5797 5795 5794 5792 5791 5788 5786 5783 5781 5780 5779 5779 5778 5777 5776 5774 5773 5770 5769 5767 5765 5763 5762 5760 5756 5755 5756 5751 5744 5740 5742 5747 5751 5750 5749 5748 5747 5745 5744 5743 5743 5741
5799 5798 5798 5795 5794 5792 5790 5787 5784 5781 5779 5777 5776 5776 5777 5776 5774 5772 5771 5769 5766 5765 5762 5761 5760 5756 5752 5753 5753 5747 5738 5734 5739 5744 5747 5747 5746 5745 5745 5744 5742 5741 5740
5802 5802 5799 5797 5795 5793 5791 5786 5782 5777 5774 5775 5776 5776 5776 5776 5774 5772 5770 5768 5765 5764 5762 5761 5760 5758 5754 5750 5751 5752 5749 5745 5737 5735 5740 5744 5745 5744 5743 5743 5742 5740 5739
5807 5803 5800 5798 5795 5794 5791 5787 5783 5779 5777 5777 5776 5775 5774 5774 5773 5771 5769 5767 5764 5763 5762 5761 5759 5758 5756 5753 5750 5749 5747 5745 5743 5736 5732 5736 5739 5741 5741 5741 5740 5738 5737
5807 5804 5801 5797 5795 5793 5790 5787 5784 5780 5778 5775 5774 5772 5772 5771 5770 5769 5768 5765 5764 5762 5761 5760 5759 5757 5755 5754 5752 5750 5746 5743 5740 5737 5733 5732 5732 5736 5738 5738 5737 5737 5735